This is the latest recevied weather packets stored in our database for station/object KC5DAQ-29. If no packets are shown the sender has not sent any weather packets the latest 1 day(s).
| Time | Temp. | Humidity | Pressure | Rain* | Wind** | Luminosity | Snow |
|---|---|---|---|---|---|---|---|
| 1777993307 | 25° C | 100% | 1006.8 hPa | 0 mm | 0.89 m/s, 193° | 148 W/m² | - |
| 1777993247 | 25° C | 100% | 1006.8 hPa | 0 mm | 0.89 m/s, 197° | 148 W/m² | - |
| 1777993187 | 25° C | 100% | 1006.8 hPa | 0 mm | 1.34 m/s, 197° | - | - |
| 1777993129 | 25° C | 100% | 1006.8 hPa | 0 mm | 0.89 m/s, 176° | - | - |
| 1777993067 | 25° C | 100% | 1006.8 hPa | 0 mm | 0.89 m/s, 162° | - | - |
| 1777993007 | 25° C | 100% | 1006.7 hPa | 0 mm | 1.34 m/s, 220° | - | - |
| 1777992948 | - | - | 1006.8 hPa | 0 mm | 2.24 m/s, 161° | 132 W/m² | - |
| 1777992887 | 25° C | 100% | 1006.7 hPa | 0 mm | 2.24 m/s, 161° | 132 W/m² | - |
| 1777992828 | 25° C | 100% | 1006.7 hPa | 0 mm | 2.24 m/s, 161° | 132 W/m² | - |
| 1777992768 | 25° C | 100% | 1006.7 hPa | 0 mm | 2.24 m/s, 161° | 132 W/m² | - |
| 1777992706 | 25° C | 100% | 1006.7 hPa | 0 mm | 2.24 m/s, 161° | 132 W/m² | - |
| 1777992645 | 25° C | 100% | 1006.7 hPa | 0 mm | 2.24 m/s, 161° | 132 W/m² | - |
| 1777992585 | 25° C | 100% | 1006.7 hPa | 0 mm | 2.24 m/s, 161° | 132 W/m² | - |
| 1777992526 | 25° C | 100% | 1006.7 hPa | 0 mm | 2.24 m/s, 161° | 132 W/m² | - |
| 1777992465 | 25° C | 100% | 1006.7 hPa | 0 mm | 2.24 m/s, 161° | 132 W/m² | - |
| 1777992405 | 25° C | 100% | 1006.6 hPa | 0 mm | 2.24 m/s, 161° | 132 W/m² | - |
| 1777992344 | 25° C | 100% | 1006.6 hPa | 0 mm | 2.24 m/s, 137° | 137 W/m² | - |
| 1777992286 | 25° C | 100% | 1006.7 hPa | 0 mm | 2.68 m/s, 226° | 137 W/m² | - |
| 1777992225 | 25° C | 100% | 1006.8 hPa | 0 mm | 1.79 m/s, 158° | 137 W/m² | - |
| 1777992165 | 25° C | 100% | 1006.7 hPa | 0 mm | 1.34 m/s, 219° | 137 W/m² | - |
| 1777992104 | 25° C | 100% | 1006.7 hPa | 0 mm | 1.79 m/s, 196° | 157 W/m² | - |
| 1777992044 | 25° C | 100% | 1006.8 hPa | 0 mm | 2.24 m/s, 241° | 157 W/m² | - |
| 1777991985 | 25° C | 100% | 1006.7 hPa | 0 mm | 2.24 m/s, 220° | 157 W/m² | - |
| 1777991925 | 25° C | 100% | 1006.7 hPa | 0 mm | 1.34 m/s, 238° | 157 W/m² | - |
| 1777991866 | 25° C | 100% | 1006.7 hPa | 0 mm | 0.89 m/s, 227° | 142 W/m² | - |
* Rain latest hour (hover to see other rain measurements)
** Current wind speed in m/s (hover to see current wind gust speed)